| time (UTC) | temp F | wind direction | speed MPH | gust MPH | rain 1hr in | rain 24hr in | rain mn in | humidity % | barometer mb |
| 20260901222100 | 77 | 36 | 8.0 | 14.0 | 0.00 | 0.00 | 0.00 | 58 | 1015.9 |
| 20260901222017 | 77 | 36 | 8.0 | 14.0 | 0.00 | 0.00 | 0.00 | 58 | 1015.9 |
| 20260901221600 | 77 | 35 | 9.0 | 13.0 | 0.00 | 0.00 | 0.00 | 59 | 1016.1 |
| 20260901221518 | 77 | 35 | 9.0 | 13.0 | 0.00 | 0.00 | 0.00 | 59 | 1016.1 |
| 20260901221012 | 77 | 36 | 9.0 | 15.0 | 0.00 | 0.00 | 0.00 | 59 | 1016.0 |
| 20260901220607 | 77 | 36 | 10.0 | 15.0 | 0.00 | 0.00 | 0.00 | 55 | 1016.1 |
| 20260901220107 | 78 | 32 | 10.0 | 14.0 | 0.00 | 0.00 | 0.00 | 51 | 1016.1 |
| 20260901220024 | 78 | 32 | 10.0 | 14.0 | 0.00 | 0.00 | 0.00 | 51 | 1016.1 |
| 20260901215518 | 79 | 34 | 7.0 | 14.0 | 0.00 | 0.00 | 0.00 | 51 | 1016.2 |
| 20260901215112 | 78 | 34 | 9.0 | 14.0 | 0.00 | 0.00 | 0.00 | 51 | 1016.3 |
| 20260901214612 | 78 | 34 | 9.0 | 14.0 | 0.00 | 0.00 | 0.00 | 55 | 1016.2 |
| 20260901214530 | 78 | 34 | 9.0 | 14.0 | 0.00 | 0.00 | 0.00 | 55 | 1016.2 |
| 20260901214059 | 79 | 35 | 10.0 | 14.0 | 0.00 | 0.00 | 0.00 | 50 | 1016.2 |
| 20260901213514 | 78 | 34 | 8.0 | 14.0 | 0.00 | 0.00 | 0.00 | 52 | 1016.2 |
| 20260901213048 | 78 | 32 | 10.0 | 14.0 | 0.00 | 0.00 | 0.00 | 50 | 1016.2 |
| 20260901212546 | 79 | 32 | 7.0 | 13.0 | 0.00 | 0.00 | 0.00 | 50 | 1016.3 |
| 20260901212020 | 79 | 34 | 8.0 | 12.0 | 0.00 | 0.00 | 0.00 | 53 | 1016.3 |
| 20260901211541 | 79 | 36 | 8.0 | 13.0 | 0.00 | 0.00 | 0.00 | 52 | 1016.3 |
| 20260901211034 | 79 | 32 | 9.0 | 14.0 | 0.00 | 0.00 | 0.00 | 52 | 1016.3 |
| 20260901210547 | 79 | 36 | 10.0 | 14.0 | 0.00 | 0.00 | 0.00 | 50 | 1016.3 |
| 20260901210024 | 79 | 34 | 9.0 | 17.0 | 0.00 | 0.00 | 0.00 | 51 | 1016.3 |
| 20260901205557 | 79 | 36 | 11.0 | 17.0 | 0.00 | 0.00 | 0.00 | 51 | 1016.4 |
| 20260901205029 | 79 | 34 | 9.0 | 14.0 | 0.00 | 0.00 | 0.00 | 51 | 1016.4 |
| 20260901204549 | 79 | 35 | 10.0 | 14.0 | 0.00 | 0.00 | 0.00 | 51 | 1016.4 |
| 20260901204041 | 80 | 36 | 6.0 | 13.0 | 0.00 | 0.00 | 0.00 | 53 | 1016.4 |
| 20260901203512 | 78 | 34 | 9.0 | 13.0 | 0.00 | 0.00 | 0.00 | 54 | 1016.4 |
| 20260901203053 | 79 | 36 | 8.0 | 13.0 | 0.00 | 0.00 | 0.00 | 54 | 1016.4 |
| 20260901202526 | 79 | 34 | 9.0 | 13.0 | 0.00 | 0.00 | 0.00 | 53 | 1016.4 |
| 20260901202101 | 79 | 34 | 8.0 | 13.0 | 0.00 | 0.00 | 0.00 | 53 | 1016.5 |
| 20260901202018 | 79 | 34 | 8.0 | 13.0 | 0.00 | 0.00 | 0.00 | 53 | 1016.5 |
| 20260901201520 | 79 | 36 | 9.0 | 14.0 | 0.00 | 0.00 | 0.00 | 54 | 1016.4 |
| 20260901201055 | 79 | 38 | 10.0 | 14.0 | 0.00 | 0.00 | 0.00 | 52 | 1016.5 |
| 20260901200526 | 80 | 36 | 7.0 | 14.0 | 0.00 | 0.00 | 0.00 | 54 | 1016.6 |
| 20260901200047 | 79 | 34 | 8.0 | 14.0 | 0.00 | 0.00 | 0.00 | 55 | 1016.6 |
| 20260901195555 | 79 | 35 | 10.0 | 14.0 | 0.00 | 0.00 | 0.00 | 54 | 1016.6 |
| 20260901195106 | 79 | 35 | 10.0 | 14.0 | 0.00 | 0.00 | 0.00 | 56 | 1016.6 |
| 20260901195024 | 79 | 35 | 10.0 | 14.0 | 0.00 | 0.00 | 0.00 | 56 | 1016.6 |
| 20260901194607 | 80 | 37 | 8.0 | 12.0 | 0.00 | 0.00 | 0.00 | 56 | 1016.6 |
| 20260901194039 | 80 | 35 | 6.0 | 14.0 | 0.00 | 0.00 | 0.00 | 56 | 1016.6 |
| 20260901193613 | 80 | 32 | 7.0 | 14.0 | 0.00 | 0.00 | 0.00 | 56 | 1016.7 |
| 20260901193028 | 80 | 32 | 8.0 | 13.0 | 0.00 | 0.00 | 0.00 | 56 | 1016.8 |
| 20260901192543 | 80 | 35 | 8.0 | 13.0 | 0.00 | 0.00 | 0.00 | 56 | 1016.8 |
| 20260901192015 | 80 | 34 | 9.0 | 11.0 | 0.00 | 0.00 | 0.00 | 56 | 1016.8 |
| 20260901191535 | 80 | 34 | 5.0 | 12.0 | 0.00 | 0.00 | 0.00 | 56 | 1016.9 |
| 20260901191047 | 80 | 35 | 8.0 | 12.0 | 0.00 | 0.00 | 0.00 | 56 | 1016.9 |
| 20260901190538 | 80 | 32 | 7.0 | 12.0 | 0.00 | 0.00 | 0.00 | 56 | 1016.9 |
| 20260901190108 | 80 | 35 | 8.0 | 12.0 | 0.00 | 0.00 | 0.00 | 57 | 1016.9 |
| 20260901185518 | 79 | 32 | 8.0 | 12.0 | 0.00 | 0.00 | 0.00 | 57 | 1016.9 |
| 20260901185053 | 79 | 36 | 5.0 | 11.0 | 0.00 | 0.00 | 0.00 | 57 | 1016.9 |
| 20260901184555 | 80 | 34 | 5.0 | 11.0 | 0.00 | 0.00 | 0.00 | 56 | 1016.9 |
| 20260901184106 | 80 | 35 | 7.0 | 11.0 | 0.00 | 0.00 | 0.00 | 56 | 1017.0 |
| 20260901184024 | 80 | 35 | 7.0 | 11.0 | 0.00 | 0.00 | 0.00 | 56 | 1017.0 |
| 20260901183557 | 80 | 35 | 4.0 | 11.0 | 0.00 | 0.00 | 0.00 | 55 | 1017.0 |
| 20260901183035 | 79 | 36 | 5.0 | 11.0 | 0.00 | 0.00 | 0.00 | 56 | 1017.2 |
| 20260901182547 | 79 | 34 | 2.0 | 11.0 | 0.00 | 0.00 | 0.00 | 57 | 1017.2 |
| 20260901182039 | 79 | 35 | 3.0 | 9.0 | 0.00 | 0.00 | 0.00 | 57 | 1017.1 |
| 20260901181533 | 79 | 34 | 3.0 | 9.0 | 0.00 | 0.00 | 0.00 | 57 | 1017.2 |
| 20260901181107 | 78 | 36 | 2.0 | 9.0 | 0.00 | 0.00 | 0.00 | 59 | 1017.2 |
| 20260901180559 | 78 | 35 | 4.0 | 9.0 | 0.00 | 0.00 | 0.00 | 59 | 1017.2 |
| 20260901180109 | 77 | 35 | 5.0 | 7.0 | 0.00 | 0.00 | 0.00 | 62 | 1017.2 |
| 20260901175601 | 78 | 35 | 2.0 | 5.0 | 0.00 | 0.00 | 0.00 | 62 | 1017.2 |
| 20260901175053 | 76 | 34 | 2.0 | 7.0 | 0.00 | 0.00 | 0.00 | 64 | 1017.1 |
| 20260901174554 | 76 | 36 | 3.0 | 9.0 | 0.00 | 0.00 | 0.00 | 64 | 1017.1 |
| 20260901174512 | 76 | 36 | 3.0 | 9.0 | 0.00 | 0.00 | 0.00 | 64 | 1017.1 |
| 20260901174105 | 76 | 35 | 4.0 | 9.0 | 0.00 | 0.00 | 0.00 | 64 | 1017.1 |
| 20260901174022 | 76 | 35 | 4.0 | 9.0 | 0.00 | 0.00 | 0.00 | 64 | 1017.1 |
| 20260901173537 | 76 | 35 | 0.0 | 4.0 | 0.00 | 0.00 | 0.00 | 66 | 1017.2 |
| 20260901173037 | 75 | 31 | 2.0 | 5.0 | 0.00 | 0.00 | 0.00 | 68 | 1017.2 |
| 20260901172611 | 74 | 35 | 3.0 | 5.0 | 0.00 | 0.00 | 0.00 | 69 | 1017.1 |
| 20260901172528 | 74 | 35 | 3.0 | 5.0 | 0.00 | 0.00 | 0.00 | 69 | 1017.1 |
| 20260901172021 | 75 | 36 | 2.0 | 5.0 | 0.00 | 0.00 | 0.00 | 69 | 1017.1 |
| 20260901171613 | 75 | 35 | 3.0 | 5.0 | 0.00 | 0.00 | 0.00 | 70 | 1017.1 |
| 20260901171101 | 74 | 34 | 3.0 | 4.0 | 0.00 | 0.00 | 0.00 | 71 | 1017.2 |
| 20260901170613 | 74 | 35 | 2.0 | 4.0 | 0.00 | 0.00 | 0.00 | 70 | 1017.2 |
| 20260901170053 | 73 | 34 | 0.0 | 6.0 | 0.00 | 0.00 | 0.00 | 73 | 1017.2 |
| 20260901165546 | 72 | 31 | 1.0 | 6.0 | 0.00 | 0.00 | 0.00 | 74 | 1017.1 |
| 20260901165018 | 72 | 32 | 4.0 | 6.0 | 0.00 | 0.00 | 0.00 | 75 | 1017.0 |
| 20260901164611 | 72 | 34 | 2.0 | 8.0 | 0.00 | 0.00 | 0.00 | 76 | 1017.0 |
| 20260901164528 | 72 | 34 | 2.0 | 8.0 | 0.00 | 0.00 | 0.00 | 76 | 1017.0 |
| 20260901164023 | 72 | 34 | 3.0 | 8.0 | 0.00 | 0.00 | 0.00 | 77 | 1017.1 |
| 20260901163556 | 71 | 34 | 5.0 | 7.0 | 0.00 | 0.00 | 0.00 | 78 | 1017.1 |
| 20260901163514 | 71 | 34 | 5.0 | 7.0 | 0.00 | 0.00 | 0.00 | 78 | 1017.1 |
| 20260901163035 | 71 | 38 | 4.0 | 7.0 | 0.00 | 0.00 | 0.00 | 77 | 1017.1 |
| 20260901162548 | 71 | 37 | 2.0 | 9.0 | 0.00 | 0.00 | 0.00 | 78 | 1017.1 |
| 20260901162043 | 71 | 37 | 3.0 | 9.0 | 0.00 | 0.00 | 0.00 | 78 | 1017.1 |
| 20260901161522 | 71 | 38 | 3.0 | 8.0 | 0.00 | 0.00 | 0.00 | 77 | 1017.0 |
| 20260901161038 | 71 | 35 | 2.0 | 5.0 | 0.00 | 0.00 | 0.00 | 78 | 1017.0 |
| 20260901160611 | 71 | 32 | 3.0 | 8.0 | 0.00 | 0.00 | 0.00 | 79 | 1016.9 |
| 20260901160528 | 71 | 32 | 3.0 | 8.0 | 0.00 | 0.00 | 0.00 | 79 | 1016.9 |
| 20260901160027 | 70 | 36 | 3.0 | 8.0 | 0.00 | 0.00 | 0.00 | 80 | 1016.8 |
| 20260901155521 | 70 | 34 | 2.0 | 6.0 | 0.00 | 0.00 | 0.00 | 81 | 1016.9 |
| 20260901155034 | 69 | 34 | 2.0 | 6.0 | 0.00 | 0.00 | 0.00 | 81 | 1016.8 |
| 20260901154517 | 69 | 37 | 3.0 | 6.0 | 0.00 | 0.00 | 0.00 | 81 | 1016.9 |
| 20260901154046 | 69 | 32 | 4.0 | 8.0 | 0.00 | 0.00 | 0.00 | 82 | 1016.8 |
| 20260901153522 | 69 | 38 | 4.0 | 8.0 | 0.00 | 0.00 | 0.00 | 82 | 1016.8 |
| 20260901153100 | 69 | 34 | 4.0 | 8.0 | 0.00 | 0.00 | 0.00 | 82 | 1016.7 |
| 20260901152537 | 69 | 38 | 2.0 | 4.0 | 0.00 | 0.00 | 0.00 | 83 | 1016.6 |
| 20260901152106 | 68 | 36 | 2.0 | 5.0 | 0.00 | 0.00 | 0.00 | 84 | 1016.6 |
| 20260901151524 | 68 | 35 | 2.0 | 5.0 | 0.00 | 0.00 | 0.00 | 84 | 1016.7 |
| 20260901151037 | 68 | 34 | 2.0 | 4.0 | 0.00 | 0.00 | 0.00 | 85 | 1016.6 |
| 20260901150610 | 68 | 32 | 1.0 | 2.0 | 0.00 | 0.00 | 0.00 | 85 | 1016.5 |
| 20260901150527 | 68 | 32 | 1.0 | 2.0 | 0.00 | 0.00 | 0.00 | 85 | 1016.5 |
| 20260901150026 | 67 | 35 | 1.0 | 2.0 | 0.00 | 0.00 | 0.00 | 85 | 1016.5 |
| 20260901145601 | 67 | 36 | 0.0 | 2.0 | 0.00 | 0.00 | 0.00 | 86 | 1016.5 |
| 20260901145518 | 67 | 36 | 0.0 | 2.0 | 0.00 | 0.00 | 0.00 | 86 | 1016.5 |
| 20260901145112 | 67 | 35 | 0.0 | 2.0 | 0.00 | 0.00 | 0.00 | 86 | 1016.5 |
| 20260901145030 | 67 | 35 | 0.0 | 2.0 | 0.00 | 0.00 | 0.00 | 86 | 1016.5 |
| 20260901144529 | 67 | 36 | 0.0 | 2.0 | 0.00 | 0.00 | 0.00 | 87 | 1016.5 |
| 20260901144022 | 66 | 32 | 1.0 | 3.0 | 0.00 | 0.00 | 0.00 | 87 | 1016.5 |
| 20260901143616 | 65 | 36 | 1.0 | 4.0 | 0.00 | 0.00 | 0.00 | 88 | 1016.4 |
| 20260901143533 | 65 | 36 | 1.0 | 4.0 | 0.00 | 0.00 | 0.00 | 88 | 1016.4 |
| 20260901143033 | 65 | 35 | 2.0 | 5.0 | 0.00 | 0.00 | 0.00 | 88 | 1016.4 |
| 20260901142526 | 65 | 35 | 2.0 | 5.0 | 0.00 | 0.00 | 0.00 | 88 | 1016.4 |
| 20260901142059 | 65 | 35 | 2.0 | 4.0 | 0.00 | 0.00 | 0.00 | 89 | 1016.4 |
| 20260901141517 | 64 | 35 | 2.0 | 4.0 | 0.00 | 0.00 | 0.00 | 89 | 1016.5 |
| 20260901141052 | 64 | 32 | 1.0 | 4.0 | 0.00 | 0.00 | 0.00 | 90 | 1016.5 |
| 20260901140605 | 64 | 36 | 2.0 | 5.0 | 0.00 | 0.00 | 0.00 | 90 | 1016.5 |
| 20260901140105 | 64 | 34 | 3.0 | 5.0 | 0.00 | 0.00 | 0.00 | 90 | 1016.4 |
| 20260901140023 | 64 | 34 | 3.0 | 5.0 | 0.00 | 0.00 | 0.00 | 90 | 1016.4 |
| 20260901135537 | 64 | 32 | 2.0 | 5.0 | 0.00 | 0.00 | 0.00 | 90 | 1016.3 |
| 20260901135110 | 63 | 35 | 3.0 | 5.0 | 0.00 | 0.00 | 0.00 | 90 | 1016.1 |
| 20260901135028 | 63 | 35 | 3.0 | 5.0 | 0.00 | 0.00 | 0.00 | 90 | 1016.1 |
| 20260901134526 | 63 | 35 | 2.0 | 6.0 | 0.00 | 0.00 | 0.00 | 90 | 1016.1 |
| 20260901134019 | 63 | 35 | 3.0 | 6.0 | 0.00 | 0.00 | 0.00 | 90 | 1016.1 |
| 20260901133533 | 64 | 36 | 3.0 | 5.0 | 0.00 | 0.00 | 0.00 | 90 | 1016.0 |
| 20260901133055 | 64 | 32 | 3.0 | 5.0 | 0.00 | 0.00 | 0.00 | 90 | 1016.0 |
| 20260901132547 | 64 | 36 | 3.0 | 4.0 | 0.00 | 0.00 | 0.00 | 90 | 1015.9 |
| 20260901132100 | 64 | 36 | 2.0 | 4.0 | 0.00 | 0.00 | 0.00 | 90 | 1015.8 |
| 20260901132018 | 64 | 36 | 2.0 | 4.0 | 0.00 | 0.00 | 0.00 | 90 | 1015.8 |
| 20260901131519 | 64 | 36 | 2.0 | 4.0 | 0.00 | 0.00 | 0.00 | 90 | 1015.7 |
| 20260901131113 | 64 | 36 | 2.0 | 3.0 | 0.00 | 0.00 | 0.00 | 90 | 1015.6 |
| 20260901130545 | 64 | 35 | 1.0 | 2.0 | 0.00 | 0.00 | 0.00 | 90 | 1015.6 |
| 20260901130107 | 64 | 36 | 0.0 | 1.0 | 0.00 | 0.00 | 0.00 | 90 | 1015.6 |
| 20260901125518 | 64 | 35 | 0.0 | 2.0 | 0.00 | 0.00 | 0.00 | 90 | 1015.5 |
| 20260901125112 | 64 | 36 | 1.0 | 4.0 | 0.00 | 0.00 | 0.00 | 90 | 1015.5 |
| 20260901125030 | 64 | 36 | 1.0 | 4.0 | 0.00 | 0.00 | 0.00 | 90 | 1015.5 |
| 20260901124613 | 64 | 34 | 2.0 | 4.0 | 0.00 | 0.00 | 0.00 | 90 | 1015.4 |
| 20260901124530 | 64 | 34 | 2.0 | 4.0 | 0.00 | 0.00 | 0.00 | 90 | 1015.4 |
| 20260901124100 | 64 | 34 | 0.0 | 2.0 | 0.00 | 0.00 | 0.00 | 89 | 1015.4 |
| 20260901124017 | 64 | 34 | 0.0 | 2.0 | 0.00 | 0.00 | 0.00 | 89 | 1015.4 |
| 20260901123516 | 64 | 36 | 0.0 | 2.0 | 0.00 | 0.00 | 0.00 | 89 | 1015.4 |
| 20260901123038 | 64 | 32 | 0.0 | 2.0 | 0.00 | 0.00 | 0.00 | 89 | 1015.4 |
| 20260901122551 | 64 | 34 | 0.0 | 2.0 | 0.00 | 0.00 | 0.00 | 89 | 1015.4 |
| 20260901122043 | 64 | 36 | 0.0 | 1.0 | 0.00 | 0.00 | 0.00 | 89 | 1015.3 |
| 20260901121523 | 64 | 37 | 0.0 | 2.0 | 0.00 | 0.00 | 0.00 | 89 | 1015.3 |
| 20260901121015 | 64 | 34 | 0.0 | 2.0 | 0.00 | 0.00 | 0.00 | 89 | 1015.4 |
| 20260901120551 | 64 | 35 | 0.0 | 2.0 | 0.00 | 0.00 | 0.00 | 88 | 1015.3 |
| 20260901120113 | 64 | 36 | 0.0 | 2.0 | 0.00 | 0.00 | 0.00 | 88 | 1015.4 |
| 20260901115524 | 64 | 35 | 0.0 | 0.0 | 0.00 | 0.00 | 0.00 | 88 | 1015.4 |
| 20260901115058 | 64 | 35 | 0.0 | 2.0 | 0.00 | 0.00 | 0.00 | 88 | 1015.5 |
| 20260901114534 | 65 | 35 | 0.0 | 3.0 | 0.00 | 0.00 | 0.00 | 87 | 1015.4 |
| 20260901114104 | 65 | 35 | 1.0 | 3.0 | 0.00 | 0.00 | 0.00 | 87 | 1015.6 |
| 20260901114021 | 65 | 35 | 1.0 | 3.0 | 0.00 | 0.00 | 0.00 | 87 | 1015.6 |
| 20260901113518 | 65 | 35 | 2.0 | 3.0 | 0.00 | 0.00 | 0.00 | 88 | 1015.5 |
| 20260901113019 | 65 | 35 | 2.0 | 3.0 | 0.00 | 0.00 | 0.00 | 88 | 1015.5 |
| 20260901112555 | 65 | 36 | 2.0 | 3.0 | 0.00 | 0.00 | 0.00 | 87 | 1015.6 |
| 20260901112107 | 65 | 35 | 1.0 | 3.0 | 0.00 | 0.00 | 0.00 | 87 | 1015.6 |
| 20260901112024 | 65 | 35 | 1.0 | 3.0 | 0.00 | 0.00 | 0.00 | 87 | 1015.6 |
| 20260901111613 | 65 | 32 | 1.0 | 3.0 | 0.00 | 0.00 | 0.00 | 87 | 1015.6 |
| 20260901111104 | 65 | 36 | 2.0 | 3.0 | 0.00 | 0.00 | 0.00 | 87 | 1015.6 |
| 20260901111022 | 65 | 36 | 2.0 | 3.0 | 0.00 | 0.00 | 0.00 | 87 | 1015.6 |
| 20260901110514 | 65 | 34 | 1.0 | 2.0 | 0.00 | 0.00 | 0.00 | 87 | 1015.6 |
| 20260901110035 | 65 | 35 | 1.0 | 2.0 | 0.00 | 0.00 | 0.00 | 87 | 1015.7 |
| 20260901105547 | 66 | 36 | 1.0 | 2.0 | 0.00 | 0.00 | 0.00 | 87 | 1015.7 |
| 20260901105018 | 66 | 36 | 1.0 | 2.0 | 0.00 | 0.00 | 0.00 | 87 | 1015.7 |
| 20260901104601 | 66 | 35 | 1.0 | 2.0 | 0.00 | 0.00 | 0.00 | 87 | 1015.7 |
| 20260901104113 | 66 | 36 | 1.0 | 2.0 | 0.00 | 0.00 | 0.00 | 88 | 1015.6 |
| 20260901104030 | 66 | 36 | 1.0 | 2.0 | 0.00 | 0.00 | 0.00 | 88 | 1015.6 |
| 20260901103604 | 66 | 34 | 0.0 | 2.0 | 0.00 | 0.00 | 0.00 | 87 | 1015.6 |
| 20260901103522 | 66 | 34 | 0.0 | 2.0 | 0.00 | 0.00 | 0.00 | 87 | 1015.6 |
| 20260901103043 | 67 | 34 | 0.0 | 2.0 | 0.00 | 0.00 | 0.00 | 87 | 1015.6 |
| 20260901102535 | 67 | 35 | 1.0 | 1.0 | 0.00 | 0.00 | 0.00 | 87 | 1015.6 |
| 20260901102027 | 67 | 34 | 1.0 | 2.0 | 0.00 | 0.00 | 0.00 | 87 | 1015.6 |
| 20260901101610 | 67 | 36 | 0.0 | 2.0 | 0.00 | 0.00 | 0.00 | 87 | 1015.6 |
| 20260901101527 | 67 | 36 | 0.0 | 2.0 | 0.00 | 0.00 | 0.00 | 87 | 1015.6 |
| 20260901101042 | 67 | 36 | 0.0 | 2.0 | 0.00 | 0.00 | 0.00 | 87 | 1015.6 |
| 20260901100616 | 68 | 34 | 0.0 | 2.0 | 0.00 | 0.00 | 0.00 | 87 | 1015.6 |
| 20260901100533 | 68 | 34 | 0.0 | 2.0 | 0.00 | 0.00 | 0.00 | 87 | 1015.6 |
| 20260901100053 | 68 | 34 | 0.0 | 1.0 | 0.00 | 0.00 | 0.00 | 87 | 1015.6 |
| 20260901095606 | 68 | 35 | 0.0 | 2.0 | 0.00 | 0.00 | 0.00 | 88 | 1015.7 |
| 20260901095524 | 68 | 35 | 0.0 | 2.0 | 0.00 | 0.00 | 0.00 | 88 | 1015.7 |
| 20260901095016 | 67 | 37 | 0.0 | 2.0 | 0.00 | 0.00 | 0.00 | 88 | 1015.7 |
| 20260901094515 | 67 | 36 | 0.0 | 3.0 | 0.00 | 0.00 | 0.00 | 89 | 1015.8 |
| 20260901094109 | 67 | 35 | 1.0 | 3.0 | 0.00 | 0.00 | 0.00 | 89 | 1015.9 |
| 20260901093600 | 67 | 35 | 2.0 | 4.0 | 0.00 | 0.00 | 0.00 | 89 | 1015.8 |
| 20260901093518 | 67 | 35 | 2.0 | 4.0 | 0.00 | 0.00 | 0.00 | 89 | 1015.8 |
| 20260901093035 | 67 | 36 | 2.0 | 4.0 | 0.00 | 0.00 | 0.00 | 89 | 1015.8 |
| 20260901092547 | 67 | 35 | 2.0 | 4.0 | 0.00 | 0.00 | 0.00 | 89 | 1015.7 |
| 20260901092040 | 68 | 34 | 0.0 | 2.0 | 0.00 | 0.00 | 0.00 | 89 | 1015.7 |
| 20260901091539 | 67 | 36 | 1.0 | 2.0 | 0.00 | 0.00 | 0.00 | 89 | 1015.7 |
| 20260901091015 | 67 | 37 | 0.0 | 4.0 | 0.00 | 0.00 | 0.00 | 90 | 1015.7 |
| 20260901090604 | 67 | 35 | 1.0 | 4.0 | 0.00 | 0.00 | 0.00 | 89 | 1015.6 |
| 20260901090522 | 67 | 35 | 1.0 | 4.0 | 0.00 | 0.00 | 0.00 | 89 | 1015.6 |
| 20260901090042 | 67 | 34 | 2.0 | 4.0 | 0.00 | 0.00 | 0.00 | 89 | 1015.6 |
| 20260901085536 | 67 | 35 | 1.0 | 2.0 | 0.00 | 0.00 | 0.00 | 89 | 1015.7 |
| 20260901085049 | 67 | 36 | 0.0 | 0.0 | 0.00 | 0.00 | 0.00 | 89 | 1015.7 |
| 20260901084547 | 67 | 37 | 0.0 | 0.0 | 0.00 | 0.00 | 0.00 | 89 | 1015.7 |
| 20260901084059 | 67 | 34 | 0.0 | 0.0 | 0.00 | 0.00 | 0.00 | 89 | 1015.7 |
| 20260901083550 | 67 | 35 | 0.0 | 0.0 | 0.00 | 0.00 | 0.00 | 89 | 1015.6 |
| 20260901083027 | 67 | 35 | 0.0 | 0.0 | 0.00 | 0.00 | 0.00 | 89 | 1015.7 |
| 20260901082600 | 67 | 35 | 0.0 | 0.0 | 0.00 | 0.00 | 0.00 | 89 | 1015.8 |
| 20260901082517 | 67 | 35 | 0.0 | 0.0 | 0.00 | 0.00 | 0.00 | 89 | 1015.8 |
| 20260901082111 | 67 | 34 | 0.0 | 0.0 | 0.00 | 0.00 | 0.00 | 89 | 1015.7 |
| 20260901082028 | 67 | 34 | 0.0 | 0.0 | 0.00 | 0.00 | 0.00 | 89 | 1015.7 |
| 20260901081526 | 67 | 34 | 0.0 | 0.0 | 0.00 | 0.00 | 0.00 | 89 | 1015.9 |
| 20260901081041 | 67 | 35 | 0.0 | 0.0 | 0.00 | 0.00 | 0.00 | 89 | 1015.8 |
| 20260901080553 | 67 | 36 | 0.0 | 0.0 | 0.00 | 0.00 | 0.00 | 89 | 1015.8 |
| 20260901080033 | 66 | 37 | 0.0 | 0.0 | 0.00 | 0.00 | 0.00 | 89 | 1015.8 |
| 20260901075547 | 66 | 35 | 0.0 | 1.0 | 0.00 | 0.00 | 0.00 | 88 | 1015.7 |
| 20260901075019 | 66 | 34 | 0.0 | 2.0 | 0.00 | 0.00 | 0.00 | 88 | 1015.8 |
| 20260901074539 | 66 | 37 | 0.0 | 2.0 | 0.00 | 0.00 | 0.00 | 88 | 1015.9 |
| 20260901074051 | 66 | 35 | 0.0 | 2.0 | 0.00 | 0.00 | 0.00 | 88 | 1015.9 |
| 20260901073604 | 66 | 37 | 0.0 | 2.0 | 0.00 | 0.00 | 0.00 | 88 | 1015.8 |
| 20260901073521 | 66 | 37 | 0.0 | 2.0 | 0.00 | 0.00 | 0.00 | 88 | 1015.8 |
| 20260901073022 | 66 | 34 | 0.0 | 2.0 | 0.00 | 0.00 | 0.00 | 87 | 1015.9 |
| 20260901072535 | 67 | 35 | 0.0 | 2.0 | 0.00 | 0.00 | 0.00 | 88 | 1015.9 |
| 20260901072027 | 66 | 35 | 1.0 | 2.0 | 0.00 | 0.00 | 0.00 | 89 | 1015.9 |
| 20260901071546 | 66 | 35 | 0.0 | 0.0 | 0.00 | 0.00 | 0.00 | 88 | 1015.8 |
| 20260901071019 | 66 | 36 | 0.0 | 0.0 | 0.00 | 0.00 | 0.00 | 88 | 1015.9 |
| 20260901070552 | 66 | 35 | 0.0 | 2.0 | 0.00 | 0.00 | 0.00 | 88 | 1015.8 |
| 20260901070031 | 66 | 38 | 0.0 | 2.0 | 0.00 | 0.00 | 0.00 | 88 | 1015.9 |
| 20260901065605 | 66 | 35 | 0.0 | 1.0 | 0.00 | 0.00 | 0.00 | 87 | 1015.9 |
| 20260901065522 | 66 | 35 | 0.0 | 1.0 | 0.00 | 0.00 | 0.00 | 87 | 1015.9 |
| 20260901065015 | 67 | 36 | 0.0 | 0.0 | 0.00 | 0.00 | 0.00 | 88 | 1015.9 |
| 20260901064537 | 67 | 36 | 0.0 | 0.0 | 0.00 | 0.00 | 0.00 | 88 | 1015.9 |
| 20260901064109 | 67 | 34 | 0.0 | 0.0 | 0.00 | 0.00 | 0.00 | 87 | 1015.9 |
| 20260901063521 | 67 | 35 | 0.0 | 0.0 | 0.00 | 0.00 | 0.00 | 87 | 1015.9 |
| 20260901063113 | 66 | 38 | 0.0 | 0.0 | 0.00 | 0.00 | 0.00 | 87 | 1015.8 |
| 20260901062604 | 67 | 35 | 0.0 | 0.0 | 0.00 | 0.00 | 0.00 | 86 | 1015.8 |
| 20260901062522 | 67 | 35 | 0.0 | 0.0 | 0.00 | 0.00 | 0.00 | 86 | 1015.8 |
| 20260901062015 | 67 | 35 | 0.0 | 0.0 | 0.00 | 0.00 | 0.00 | 85 | 1015.8 |
| 20260901061535 | 67 | 35 | 0.0 | 0.0 | 0.00 | 0.00 | 0.00 | 86 | 1015.8 |
| 20260901061047 | 67 | 36 | 0.0 | 0.0 | 0.00 | 0.00 | 0.00 | 86 | 1015.8 |
| 20260901060541 | 67 | 36 | 0.0 | 0.0 | 0.00 | 0.00 | 0.00 | 86 | 1015.7 |
| 20260901060112 | 67 | 36 | 0.0 | 0.0 | 0.00 | 0.00 | 0.00 | 86 | 1015.8 |
| 20260901060030 | 67 | 36 | 0.0 | 0.0 | 0.00 | 0.00 | 0.00 | 86 | 1015.8 |
| 20260901055543 | 67 | 35 | 0.0 | 0.0 | 0.00 | 0.00 | 0.00 | 85 | 1015.8 |
| 20260901055036 | 67 | 36 | 0.0 | 0.0 | 0.00 | 0.00 | 0.00 | 85 | 1015.8 |
| 20260901054558 | 67 | 36 | 0.0 | 0.0 | 0.00 | 0.00 | 0.00 | 86 | 1015.9 |
| 20260901054516 | 67 | 36 | 0.0 | 0.0 | 0.00 | 0.00 | 0.00 | 86 | 1015.9 |
| 20260901054111 | 67 | 35 | 0.0 | 2.0 | 0.00 | 0.00 | 0.00 | 85 | 1015.8 |
| 20260901054028 | 67 | 35 | 0.0 | 2.0 | 0.00 | 0.00 | 0.00 | 85 | 1015.8 |
| 20260901053521 | 67 | 35 | 1.0 | 2.0 | 0.00 | 0.00 | 0.00 | 85 | 1015.7 |
| 20260901053043 | 67 | 35 | 1.0 | 2.0 | 0.00 | 0.00 | 0.00 | 84 | 1015.7 |
| 20260901052536 | 68 | 36 | 0.0 | 0.0 | 0.00 | 0.00 | 0.00 | 84 | 1015.7 |
| 20260901052029 | 69 | 34 | 0.0 | 2.0 | 0.00 | 0.00 | 0.00 | 83 | 1015.6 |
| 20260901051527 | 69 | 32 | 1.0 | 2.0 | 0.00 | 0.00 | 0.00 | 84 | 1015.7 |
| 20260901051041 | 69 | 34 | 0.0 | 2.0 | 0.00 | 0.00 | 0.00 | 84 | 1015.7 |
| 20260901050532 | 69 | 34 | 1.0 | 4.0 | 0.00 | 0.00 | 0.00 | 84 | 1015.7 |
| 20260901050034 | 69 | 32 | 2.0 | 4.0 | 0.00 | 0.00 | 0.00 | 84 | 1015.7 |
| 20260901045549 | 69 | 34 | 2.0 | 3.0 | 0.00 | 0.00 | 0.00 | 83 | 1015.6 |
| 20260901045101 | 69 | 32 | 1.0 | 2.0 | 0.00 | 0.00 | 0.00 | 83 | 1015.7 |
| 20260901044611 | 69 | 35 | 0.0 | 3.0 | 0.00 | 0.00 | 0.00 | 83 | 1015.6 |
| 20260901044528 | 69 | 35 | 0.0 | 3.0 | 0.00 | 0.00 | 0.00 | 83 | 1015.6 |
| 20260901044042 | 69 | 34 | 1.0 | 3.0 | 0.00 | 0.00 | 0.00 | 84 | 1015.6 |
| 20260901043515 | 69 | 36 | 0.0 | 2.0 | 0.00 | 0.00 | 0.00 | 83 | 1015.5 |
| 20260901043035 | 69 | 36 | 1.0 | 3.0 | 0.00 | 0.00 | 0.00 | 84 | 1015.6 |
| 20260901042548 | 69 | 35 | 2.0 | 3.0 | 0.00 | 0.00 | 0.00 | 84 | 1015.5 |
| 20260901042101 | 69 | 36 | 2.0 | 3.0 | 0.00 | 0.00 | 0.00 | 84 | 1015.5 |
| 20260901041520 | 69 | 36 | 2.0 | 4.0 | 0.00 | 0.00 | 0.00 | 84 | 1015.6 |
| 20260901041114 | 69 | 34 | 2.0 | 4.0 | 0.00 | 0.00 | 0.00 | 84 | 1015.5 |
| 20260901040601 | 69 | 38 | 2.0 | 4.0 | 0.00 | 0.00 | 0.00 | 83 | 1015.5 |
| 20260901035554 | 69 | 34 | 2.0 | 4.0 | 0.00 | 0.00 | 0.00 | 84 | 1015.5 |
| 20260901035027 | 69 | 38 | 3.0 | 5.0 | 0.00 | 0.00 | 0.00 | 84 | 1015.3 |
| 20260901034547 | 69 | 34 | 3.0 | 5.0 | 0.00 | 0.00 | 0.00 | 84 | 1015.3 |
| 20260901034039 | 70 | 34 | 3.0 | 5.0 | 0.00 | 0.00 | 0.00 | 84 | 1015.2 |
| 20260901033532 | 70 | 36 | 2.0 | 5.0 | 0.00 | 0.00 | 0.00 | 84 | 1015.1 |
| 20260901033053 | 70 | 35 | 3.0 | 5.0 | 0.00 | 0.00 | 0.00 | 84 | 1015.1 |
| 20260901032605 | 70 | 35 | 4.0 | 5.0 | 0.00 | 0.00 | 0.00 | 83 | 1014.9 |
| 20260901032056 | 70 | 35 | 2.0 | 4.0 | 0.00 | 0.00 | 0.00 | 83 | 1014.9 |
| 20260901032014 | 70 | 35 | 2.0 | 4.0 | 0.00 | 0.00 | 0.00 | 83 | 1014.9 |
| 20260901031557 | 70 | 36 | 2.0 | 5.0 | 0.00 | 0.00 | 0.00 | 83 | 1014.8 |
| 20260901031514 | 70 | 36 | 2.0 | 5.0 | 0.00 | 0.00 | 0.00 | 83 | 1014.8 |
| 20260901031108 | 70 | 34 | 3.0 | 5.0 | 0.00 | 0.00 | 0.00 | 82 | 1014.7 |
| 20260901031026 | 70 | 34 | 3.0 | 5.0 | 0.00 | 0.00 | 0.00 | 82 | 1014.7 |
| 20260901030519 | 70 | 35 | 3.0 | 5.0 | 0.00 | 0.00 | 0.00 | 82 | 1014.7 |
| 20260901030041 | 70 | 36 | 3.0 | 5.0 | 0.00 | 0.00 | 0.00 | 82 | 1014.6 |
| 20260901025514 | 71 | 35 | 3.0 | 5.0 | 0.00 | 0.00 | 0.00 | 81 | 1014.6 |
| 20260901025029 | 71 | 35 | 4.0 | 7.0 | 0.00 | 0.00 | 0.00 | 81 | 1014.5 |
| 20260901024528 | 71 | 35 | 4.0 | 7.0 | 0.00 | 0.00 | 0.00 | 80 | 1014.4 |
| 20260901024041 | 71 | 35 | 4.0 | 7.0 | 0.00 | 0.00 | 0.00 | 79 | 1014.4 |
| 20260901023553 | 72 | 35 | 4.0 | 7.0 | 0.00 | 0.00 | 0.00 | 78 | 1014.4 |
| 20260901023030 | 72 | 38 | 5.0 | 9.0 | 0.00 | 0.00 | 0.00 | 77 | 1014.2 |
| 20260901022542 | 72 | 35 | 6.0 | 9.0 | 0.00 | 0.00 | 0.00 | 76 | 1014.3 |
| 20260901022037 | 72 | 35 | 4.0 | 8.0 | 0.00 | 0.00 | 0.00 | 74 | 1014.2 |
| 20260901021558 | 72 | 38 | 5.0 | 8.0 | 0.00 | 0.00 | 0.00 | 73 | 1014.1 |
| 20260901021515 | 72 | 38 | 5.0 | 8.0 | 0.00 | 0.00 | 0.00 | 73 | 1014.1 |
| 20260901021029 | 73 | 36 | 5.0 | 8.0 | 0.00 | 0.00 | 0.00 | 72 | 1014.0 |
| 20260901020542 | 74 | 35 | 4.0 | 6.0 | 0.00 | 0.00 | 0.00 | 71 | 1013.9 |
| 20260901020041 | 74 | 37 | 3.0 | 8.0 | 0.00 | 0.00 | 0.00 | 70 | 1013.9 |
| 20260901015533 | 74 | 35 | 4.0 | 7.0 | 0.00 | 0.00 | 0.00 | 70 | 1013.8 |
| 20260901015106 | 75 | 35 | 4.0 | 6.0 | 0.00 | 0.00 | 0.00 | 70 | 1013.8 |
| 20260901015023 | 75 | 35 | 4.0 | 6.0 | 0.00 | 0.00 | 0.00 | 70 | 1013.8 |
| 20260901014614 | 74 | 38 | 4.0 | 8.0 | 0.00 | 0.00 | 0.00 | 70 | 1013.8 |
| 20260901014046 | 74 | 36 | 4.0 | 8.0 | 0.00 | 0.00 | 0.00 | 70 | 1013.8 |
| 20260901013539 | 75 | 36 | 5.0 | 8.0 | 0.00 | 0.00 | 0.00 | 69 | 1013.9 |
| 20260901013100 | 75 | 35 | 4.0 | 8.0 | 0.00 | 0.00 | 0.00 | 69 | 1013.9 |
| 20260901013017 | 75 | 35 | 4.0 | 8.0 | 0.00 | 0.00 | 0.00 | 69 | 1013.9 |
| 20260901012611 | 75 | 36 | 5.0 | 9.0 | 0.00 | 0.00 | 0.00 | 67 | 1013.9 |
| 20260901012100 | 76 | 34 | 4.0 | 9.0 | 0.00 | 0.00 | 0.00 | 68 | 1013.9 |
| 20260901012017 | 76 | 34 | 4.0 | 9.0 | 0.00 | 0.00 | 0.00 | 68 | 1013.9 |
| 20260901011517 | 75 | 36 | 3.0 | 8.0 | 0.00 | 0.00 | 0.00 | 70 | 1014.0 |
| 20260901011014 | 75 | 36 | 5.0 | 11.0 | 0.00 | 0.00 | 0.00 | 71 | 1014.0 |
| 20260901010549 | 76 | 36 | 5.0 | 11.0 | 0.00 | 0.00 | 0.00 | 70 | 1014.0 |
| 20260901010108 | 76 | 35 | 6.0 | 11.0 | 0.00 | 0.00 | 0.00 | 71 | 1014.1 |
| 20260901010025 | 76 | 35 | 6.0 | 11.0 | 0.00 | 0.00 | 0.00 | 71 | 1014.1 |
| 20260901005538 | 75 | 35 | 4.0 | 10.0 | 0.00 | 0.00 | 0.00 | 71 | 1014.1 |
| 20260901005111 | 76 | 34 | 6.0 | 10.0 | 0.00 | 0.00 | 0.00 | 71 | 1014.2 |
| 20260901004527 | 75 | 32 | 6.0 | 11.0 | 0.00 | 0.00 | 0.00 | 71 | 1014.2 |
| 20260901004020 | 75 | 36 | 6.0 | 11.0 | 0.00 | 0.00 | 0.00 | 69 | 1014.2 |
| 20260901003518 | 75 | 32 | 6.0 | 12.0 | 0.00 | 0.00 | 0.00 | 69 | 1014.2 |
| 20260901003057 | 76 | 32 | 5.0 | 10.0 | 0.00 | 0.00 | 0.00 | 69 | 1014.2 |
| 20260901002549 | 76 | 32 | 7.0 | 11.0 | 0.00 | 0.00 | 0.00 | 70 | 1014.2 |
| 20260901002025 | 76 | 35 | 7.0 | 10.0 | 0.00 | 0.00 | 0.00 | 68 | 1014.1 |
| 20260901001613 | 77 | 34 | 6.0 | 10.0 | 0.00 | 0.00 | 0.00 | 67 | 1014.1 |
| 20260901001044 | 76 | 36 | 6.0 | 11.0 | 0.00 | 0.00 | 0.00 | 67 | 1014.2 |
| 20260901000521 | 77 | 34 | 7.0 | 11.0 | 0.00 | 0.00 | 0.00 | 67 | 1014.2 |
| 20260901000039 | 76 | 34 | 8.0 | 16.0 | 0.00 | 0.00 | 0.00 | 68 | 1014.2 |
| 20260831235611 | 76 | 35 | 7.0 | 16.0 | 0.00 | 0.00 | 0.00 | 71 | 1014.3 |
| 20260831235043 | 76 | 35 | 8.0 | 14.0 | 0.00 | 0.00 | 0.00 | 70 | 1014.3 |
| 20260831234606 | 77 | 32 | 8.0 | 14.0 | 0.00 | 0.00 | 0.00 | 69 | 1014.3 |
| 20260831234524 | 77 | 32 | 8.0 | 14.0 | 0.00 | 0.00 | 0.00 | 69 | 1014.3 |
| 20260831234037 | 77 | 35 | 8.0 | 12.0 | 0.00 | 0.00 | 0.00 | 68 | 1014.3 |
| 20260831233529 | 78 | 35 | 9.0 | 13.0 | 0.00 | 0.00 | 0.00 | 66 | 1014.4 |
| 20260831233048 | 78 | 36 | 8.0 | 13.0 | 0.00 | 0.00 | 0.00 | 67 | 1014.3 |
| 20260831232541 | 78 | 35 | 8.0 | 11.0 | 0.00 | 0.00 | 0.00 | 67 | 1014.2 |
| 20260831232035 | 77 | 36 | 5.0 | 14.0 | 0.00 | 0.00 | 0.00 | 69 | 1014.2 |
| 20260831231557 | 77 | 35 | 6.0 | 13.0 | 0.00 | 0.00 | 0.00 | 68 | 1014.2 |
| 20260831231109 | 77 | 36 | 10.0 | 12.0 | 0.00 | 0.00 | 0.00 | 67 | 1014.2 |
| 20260831230520 | 78 | 34 | 6.0 | 12.0 | 0.00 | 0.00 | 0.00 | 68 | 1014.2 |
| 20260831230112 | 77 | 34 | 7.0 | 11.0 | 0.00 | 0.00 | 0.00 | 67 | 1014.4 |
| 20260831225523 | 78 | 36 | 9.0 | 14.0 | 0.00 | 0.00 | 0.00 | 64 | 1014.4 |
| 20260831225017 | 77 | 35 | 7.0 | 14.0 | 0.00 | 0.00 | 0.00 | 63 | 1014.4 |
| 20260831224610 | 77 | 34 | 9.0 | 14.0 | 0.00 | 0.00 | 0.00 | 63 | 1014.4 |
| 20260831224528 | 77 | 34 | 9.0 | 14.0 | 0.00 | 0.00 | 0.00 | 63 | 1014.4 |
| 20260831224021 | 78 | 36 | 8.0 | 14.0 | 0.00 | 0.00 | 0.00 | 63 | 1014.5 |
| 20260831223555 | 78 | 36 | 10.0 | 14.0 | 0.00 | 0.00 | 0.00 | 65 | 1014.5 |
| 20260831223035 | 78 | 35 | 8.0 | 13.0 | 0.00 | 0.00 | 0.00 | 64 | 1014.6 |
| 20260831222527 | 78 | 35 | 9.0 | 14.0 | 0.00 | 0.00 | 0.00 | 65 | 1014.7 |